[[{"header":{"parameterUnit":"m.s-1","parameterCategory":1,"la1":30.2991,"la2":30.254,"lo1":-89.0895,"lo2":-89.0444,"dy":0.0017,"dx":0.0017,"nx":28,"ny":28,"refTime":"2024-02-26T09:00:00:Z","depth":0,"parameterNumber":2,"parameterNumberName":"U-component_of_WINDS"},"data":[0,0,0,0,0,0,0,0,0,0,0,0,0,0,0,0,0,0,0,0,0,0,0,0,0,0,0,0,0,0,0,0,0,0,0,0,0,0,0,0,0,0,0,0,0,0,0,0,0,0,0,0,0,0,0,0,0,0,-0.9325,-0.9326,0,-0.9424,-0.9425,-0.9426,-0.9468,-0.9468,-0.9468,-0.9468,-0.9564,-0.9567,-0.9569,0,0,0,0,0,0,0,0,0,0,0,0,0,-0.9166,-0.9168,-0.9325,-0.9326,-0.9327,-0.9424,-0.9425,-0.9426,-0.9468,-0.9468,-0.9468,-0.9467,-0.9563,-0.9566,-0.957,0,0,0,0,0,0,0,0,0,0,0,0,0,-0.9247,-0.9169,-0.9325,-0.936,-0.9364,-0.9423,-0.9425,-0.9427,-0.9468,-0.9468,-0.9468,-0.9467,-0.9562,-0.9566,-0.957,-0.96,0,0,-0.9583,-0.9584,0,0,0,0,0,0,0,0,-0.9242,-0.9252,-0.9353,-0.9358,-0.9362,-0.9434,-0.9404,-0.9485,-0.9468,-0.9428,-0.9468,-0.9467,-0.952,-0.9528,-0.9547,-0.9605,-0.9609,-0.9583,-0.9585,-0.9587,-0.9588,0,0,0,0,0,0,0,-0.9236,-0.9248,-0.9364,-0.9355,-0.936,-0.9369,-0.938,-0.942,-0.9474,-0.9432,-0.9435,-0.9447,-0.9523,-0.9543,-0.955,-0.9611,-0.9583,-0.9586,-0.9589,-0.9591,-0.9696,-0.9696,0,0,0,0,0,0,-0.9226,-0.9243,-0.9361,-0.9367,-0.93,-0.9372,-0.9384,-0.9411,-0.9474,-0.9484,-0.9447,-0.9448,-0.9536,-0.9545,-0.9553,-0.9592,-0.9587,-0.9591,-0.9593,-0.9695,-0.9696,-0.9696,0,0,0,0,0,0,-0.9222,-0.9236,-0.9357,-0.9306,-0.9322,-0.9375,-0.9404,-0.9413,-0.9433,-0.9486,-0.9495,-0.9458,-0.9536,-0.9547,-0.9588,-0.9596,-0.9593,-0.9597,-0.9695,-0.9696,-0.9696,-0.967,0,0,0,0,0,0,-0.9217,-0.9234,-0.9248,-0.9306,-0.9325,-0.9392,-0.9405,-0.9415,-0.9441,-0.9444,-0.9498,-0.9507,-0.9537,-0.9582,-0.9592,-0.9601,-0.96,-0.9695,-0.9695,-0.9696,-0.967,-0.9669,-0.9669,0,0,0,0,0,-0.9211,-0.9236,-0.9249,-0.9262,-0.9343,-0.9393,-0.9403,-0.9438,-0.9441,-0.9454,-0.9487,-0.9505,-0.9593,-0.9586,-0.9598,-0.9608,-0.9694,-0.9695,-0.9696,-0.9671,-0.967,-0.9669,0,0,0,0,0,0,-0.9176,-0.9244,-0.9259,-0.9304,-0.9342,-0.94,-0.9418,-0.9436,-0.9474,-0.9475,-0.9515,-0.9527,-0.9564,-0.959,-0.9581,-0.9639,-0.9645,-0.9648,-0.9622,-0.9621,-0.962,-0.9613,-0.9603,0,0,0,0,0,-0.9174,-0.921,-0.9267,-0.93,-0.9319,-0.9365,-0.9388,-0.9411,-0.9452,-0.9468,-0.9505,-0.9542,-0.9578,-0.9601,-0.9637,-0.9674,-0.9685,-0.9686,-0.9686,-0.9685,-0.9687,-0.9707,-0.9708,-0.9699,-0.9699,-0.9699,0,0,-0.9169,-0.9211,-0.9231,-0.9294,-0.9327,-0.9362,-0.9378,-0.9415,-0.944,-0.9473,-0.9515,-0.9542,-0.9586,-0.9625,-0.9644,-0.9648,-0.9692,-0.9686,-0.9685,-0.9688,-0.9708,-0.9708,-0.9709,-0.9699,-0.9699,-0.9699,0,0,-0.9178,-0.9214,-0.9245,-0.9278,-0.9327,-0.9357,-0.9364,-0.9419,-0.9438,-0.9481,-0.9506,-0.9535,-0.9597,-0.9627,-0.965,-0.9667,-0.9684,-0.9678,-0.9674,-0.9692,-0.9693,-0.9694,-0.9699,-0.97,-0.968,-0.968,-0.968,0,-0.9166,-0.9221,-0.9259,-0.9293,-0.932,-0.9352,-0.9383,-0.9411,-0.9469,-0.9486,-0.949,-0.9566,-0.9598,-0.9644,-0.9648,-0.9666,-0.9674,-0.9672,-0.969,-0.9691,-0.9692,-0.9698,-0.97,-0.9678,-0.9679,-0.9679,-0.9679,0,-0.9202,-0.9239,-0.9258,-0.9315,-0.9343,-0.9375,-0.9416,-0.9439,-0.946,-0.9488,-0.9529,-0.9568,-0.9612,-0.9624,-0.9644,-0.9672,-0.9673,-0.9683,-0.9689,-0.9692,-0.9697,-0.97,-0.9677,-0.9677,-0.9678,-0.9678,0,0,-0.9194,-0.9269,-0.9276,-0.9301,-0.9356,-0.9385,-0.9417,-0.9462,-0.948,-0.9518,-0.9545,-0.9595,-0.9604,-0.9631,-0.9654,-0.967,-0.968,-0.9678,-0.9679,-0.9676,-0.9711,-0.9703,-0.9705,-0.9691,-0.9692,-0.9692,-0.9707,0,-0.921,-0.9272,-0.9306,-0.9352,-0.9386,-0.9416,-0.9444,-0.948,-0.9507,-0.9537,-0.9566,-0.9601,-0.9611,-0.9627,-0.9644,-0.9675,-0.9687,-0.9674,-0.9715,-0.9716,-0.9704,-0.9708,-0.9701,-0.9713,-0.9709,-0.971,-0.971,0,-0.9238,-0.9276,-0.9327,-0.9377,-0.9392,-0.9417,-0.9459,-0.9489,-0.9529,-0.9547,-0.9575,-0.9598,-0.9631,-0.9634,-0.9678,-0.9669,-0.9687,-0.9704,-0.9705,-0.9711,-0.9714,-0.9713,-0.9718,-0.972,-0.9714,-0.9714,-0.9714,0,-0.9225,-0.9289,-0.9328,-0.9348,-0.9408,-0.9425,-0.945,-0.949,-0.9514,-0.9549,-0.9565,-0.9603,-0.9624,-0.9652,-0.9684,-0.9683,-0.9724,-0.973,-0.9739,-0.9738,-0.9747,-0.9746,-0.9754,-0.9758,-0.9758,-0.9758,-0.9758,0,-0.924,-0.9269,-0.9323,-0.9346,-0.9379,-0.9417,-0.9447,-0.9475,-0.951,-0.9537,-0.9565,-0.9589,-0.963,-0.9659,-0.9683,-0.9715,-0.9725,-0.9739,-0.9745,-0.9737,-0.9735,-0.975,-0.975,-0.9759,-0.9759,-0.9759,-0.9759,0,-0.9232,-0.927,-0.9313,-0.9366,-0.938,-0.9402,-0.9446,-0.9468,-0.9496,-0.953,-0.954,-0.9583,-0.9618,-0.9652,-0.9699,-0.9716,-0.9748,-0.9756,-0.9735,-0.9738,-0.9745,-0.9744,-0.9763,-0.9767,-0.9768,-0.9768,-0.9768,0,-0.924,-0.9263,-0.9318,-0.9339,-0.9365,-0.9398,-0.9422,-0.9459,-0.9482,-0.9529,-0.9545,-0.9583,-0.9615,-0.967,-0.9704,-0.9739,-0.9748,-0.9753,-0.9754,-0.9744,-0.9748,-0.9746,-0.9748,-0.9752,-0.9752,-0.9751,-0.9751,0,-0.9248,-0.9265,-0.93,-0.934,-0.9369,-0.9402,-0.9437,-0.9452,-0.9494,-0.9519,-0.9556,-0.9581,-0.9629,-0.9666,-0.9705,-0.9728,-0.9746,-0.975,-0.9754,-0.9746,-0.9733,-0.974,-0.9733,-0.975,-0.975,-0.975,-0.975,-0.975,-0.9248,-0.9269,-0.9311,-0.9349,-0.9378,-0.9409,-0.9433,-0.9463,-0.9496,-0.9539,-0.9557,-0.9595,-0.9632,-0.9686,-0.9709,-0.9738,-0.9742,-0.9748,-0.9749,-0.975,-0.9748,-0.9728,-0.9745,-0.9745,-0.9745,-0.9745,-0.9745,0,-0.9257,-0.9285,-0.9319,-0.9367,-0.9395,-0.9411,-0.9449,-0.9471,-0.9504,-0.9538,-0.9569,-0.9611,-0.9646,-0.9682,-0.9718,-0.9733,-0.9742,-0.9742,-0.9741,-0.9746,-0.9742,-0.9735,-0.9734,-0.9734,-0.9734,-0.9734,-0.9734,-0.9734,-0.9265,-0.9302,-0.9324,-0.9375,-0.9403,-0.9441,-0.9461,-0.9488,-0.9516,-0.9562,-0.9591,-0.9615,-0.9649,-0.9688,-0.972,-0.9729,-0.9741,-0.9738,-0.9749,-0.9745,-0.9746,-0.9747,-0.9741,-0.974,-0.974,-0.9751,-0.9751,-0.9751]},{"header":{"parameterUnit":"m.s-1","parameterCategory":1,"la1":30.2991,"la2":30.254,"lo1":-89.0895,"lo2":-89.0444,"dy":0.0017,"dx":0.0017,"nx":28,"ny":28,"refTime":"2024-02-26T09:00:00:Z","depth":0,"parameterNumber":3,"parameterNumberName":"V-component_of_WINDS"},"data":[0,0,0,0,0,0,0,0,0,0,0,0,0,0,0,0,0,0,0,0,0,0,0,0,0,0,0,0,0,0,0,0,0,0,0,0,0,0,0,0,0,0,0,0,0,0,0,0,0,0,0,0,0,0,0,0,0,0,4.9085,4.9086,0,4.9136,4.9137,4.9137,4.9182,4.9183,4.9183,4.9184,4.9239,4.924,4.9241,0,0,0,0,0,0,0,0,0,0,0,0,0,4.9034,4.9035,4.9085,4.9086,4.9086,4.9136,4.9137,4.9137,4.9182,4.9183,4.9184,4.9184,4.9239,4.924,4.9241,0,0,0,0,0,0,0,0,0,0,0,0,0,4.9068,4.9035,4.9085,4.9115,4.9118,4.9136,4.9137,4.9138,4.9182,4.9183,4.9184,4.9185,4.9238,4.924,4.9241,4.9235,0,0,4.9246,4.9246,0,0,0,0,0,0,0,0,4.9066,4.9069,4.911,4.9113,4.9116,4.9154,4.9139,4.917,4.9182,4.9158,4.9184,4.9185,4.921,4.9214,4.9222,4.9237,4.924,4.9246,4.9247,4.9247,4.9248,0,0,0,0,0,0,0,4.9063,4.9068,4.9105,4.911,4.9114,4.9128,4.9134,4.9145,4.9179,4.916,4.9163,4.9169,4.9212,4.922,4.9224,4.9241,4.9246,4.9247,4.9248,4.9249,4.926,4.926,0,0,0,0,0,0,4.9056,4.9065,4.9104,4.9107,4.9092,4.9128,4.9134,4.9141,4.9179,4.9186,4.9168,4.9171,4.9218,4.9222,4.9226,4.9224,4.9247,4.9249,4.925,4.9261,4.926,4.9259,0,0,0,0,0,0,4.9054,4.9059,4.9102,4.9087,4.9094,4.9128,4.9135,4.9142,4.915,4.9185,4.9192,4.917,4.9218,4.9224,4.9234,4.9227,4.9249,4.9251,4.9261,4.9261,4.926,4.9219,0,0,0,0,0,0,4.9053,4.9058,4.9053,4.9087,4.9094,4.9106,4.9135,4.9142,4.9152,4.9156,4.9188,4.9195,4.9219,4.9231,4.9235,4.9229,4.9252,4.9262,4.9261,4.926,4.9221,4.9217,4.9213,0,0,0,0,0,4.9051,4.9039,4.9053,4.9057,4.9089,4.9105,4.911,4.9138,4.9151,4.9149,4.9173,4.9194,4.9227,4.9232,4.9236,4.9231,4.9263,4.9261,4.926,4.9223,4.9218,4.9213,0,0,0,0,0,0,4.9004,4.9044,4.9059,4.9058,4.9078,4.9113,4.911,4.913,4.9147,4.9151,4.9186,4.9193,4.92,4.9217,4.9221,4.923,4.9248,4.9248,4.9218,4.9214,4.921,4.9206,4.9253,0,0,0,0,0,4.8994,4.9002,4.9037,4.9033,4.9042,4.9075,4.9082,4.9103,4.9125,4.9134,4.9158,4.918,4.9197,4.9206,4.9223,4.9225,4.9235,4.9224,4.922,4.9217,4.9216,4.9223,4.922,4.9255,4.9255,4.9255,0,0,4.8972,4.8995,4.8998,4.9024,4.9042,4.9052,4.9081,4.9089,4.9098,4.9135,4.9147,4.9166,4.9194,4.9201,4.9205,4.9215,4.9209,4.9215,4.9212,4.9213,4.9222,4.9218,4.9215,4.9254,4.9254,4.9255,0,0,4.8938,4.8955,4.8955,4.8974,4.9001,4.9024,4.9024,4.9057,4.9071,4.9083,4.9113,4.9126,4.9151,4.9171,4.9185,4.9166,4.9187,4.917,4.9149,4.9156,4.9154,4.9151,4.9147,4.9145,4.9169,4.9169,4.9169,0,4.8908,4.8923,4.8953,4.8961,4.8974,4.9009,4.9012,4.9029,4.906,4.9069,4.908,4.9117,4.9138,4.9153,4.9149,4.9157,4.9162,4.9166,4.9151,4.9149,4.9148,4.9145,4.9143,4.9167,4.9168,4.9168,4.9168,0,4.8887,4.8897,4.8895,4.8925,4.8937,4.8942,4.8977,4.8987,4.9007,4.903,4.9045,4.9072,4.9097,4.9102,4.9122,4.9122,4.9127,4.9144,4.9163,4.9142,4.914,4.9138,4.9164,4.9165,4.9166,4.9166,0,0,4.8821,4.8872,4.8871,4.8887,4.8922,4.8932,4.8942,4.8966,4.8975,4.8997,4.9008,4.9033,4.905,4.9066,4.9089,4.9095,4.9083,4.9112,4.9113,4.9107,4.9089,4.9076,4.9074,4.9098,4.9098,4.9098,4.9087,0,4.8795,4.8811,4.8842,4.885,4.8863,4.8899,4.8909,4.8933,4.8956,4.8972,4.8999,4.9016,4.9036,4.9047,4.9054,4.9082,4.908,4.9083,4.9111,4.9112,4.9103,4.9072,4.9058,4.9046,4.9086,4.9086,4.9086,0,4.8765,4.8786,4.8795,4.8835,4.8841,4.8848,4.8876,4.889,4.892,4.8937,4.8957,4.8984,4.9,4.9018,4.9042,4.9044,4.9059,4.9075,4.9075,4.9079,4.9097,4.9077,4.9043,4.9041,4.9084,4.9084,4.9084,0,4.872,4.8751,4.8762,4.8774,4.8819,4.8824,4.8843,4.8875,4.8889,4.8915,4.8925,4.8952,4.8967,4.8989,4.9024,4.9033,4.9046,4.9066,4.9063,4.9062,4.9063,4.9063,4.9032,4.9071,4.9071,4.9071,4.9071,0,4.8687,4.8692,4.8742,4.8749,4.8758,4.8795,4.8803,4.8826,4.8855,4.8869,4.8903,4.8917,4.8961,4.8981,4.9009,4.9027,4.9033,4.905,4.9057,4.9047,4.9045,4.9056,4.9058,4.9071,4.9071,4.9071,4.9071,0,4.8638,4.8671,4.8686,4.8728,4.874,4.8744,4.8782,4.8792,4.8819,4.8837,4.8844,4.8887,4.8912,4.895,4.8986,4.9005,4.9021,4.9032,4.901,4.9014,4.901,4.9011,4.8986,4.8987,4.9024,4.9023,4.9023,0,4.8615,4.862,4.8664,4.8676,4.8694,4.8712,4.8728,4.8767,4.8782,4.8821,4.8827,4.8856,4.888,4.8921,4.8956,4.8986,4.8999,4.8989,4.9004,4.8995,4.9002,4.9001,4.9004,4.8985,4.8985,4.8984,4.8984,0,4.8572,4.859,4.861,4.8638,4.8655,4.8679,4.8705,4.8713,4.8758,4.8775,4.8801,4.8821,4.886,4.8889,4.8925,4.8948,4.8975,4.8979,4.8981,4.897,4.8958,4.8967,4.9001,4.8979,4.898,4.898,4.898,4.898,4.8537,4.8545,4.8578,4.8601,4.8625,4.8649,4.8662,4.8691,4.8714,4.8748,4.877,4.8797,4.8834,4.8884,4.8907,4.8931,4.8941,4.8942,4.8943,4.8943,4.894,4.8954,4.8937,4.8937,4.8938,4.8938,4.8938,0,4.8498,4.8522,4.8543,4.8578,4.8598,4.8621,4.8652,4.8667,4.869,4.8721,4.8745,4.8779,4.8809,4.8849,4.8882,4.8894,4.8907,4.8902,4.8902,4.8907,4.8928,4.8924,4.8891,4.8891,4.8891,4.8891,4.8891,4.8891,4.848,4.8496,4.8518,4.8547,4.8573,4.8598,4.8614,4.8639,4.8664,4.8699,4.8724,4.875,4.8786,4.8824,4.8854,4.8865,4.8877,4.8868,4.8883,4.8901,4.8905,4.8909,4.8906,4.8869,4.8869,4.8861,4.8861,4.8861]}]]